Thursday, October 23, 2014
05:59 UTC
  |  Log In   |  Register Free
Airport Search:

South Big Horn County Airport
(KGEY)

South Big Horn County Airport Diagram
No Airport Diagram Available

FAA data valid effective September 18, 2014 - November 13, 2014 (unless otherwise noted).

 
 
 
 
 
 
 
 
 
 
 
 
 
 

Current Aviation Weather for South Big Horn County Airport (KGEY)

The most recent METAR observation for KGEY was updated at: 0527
METAR Summary (Translated METAR)
KGEY
230453Z AUTO 00000KT 10SM CLR 05/M06 A3004 RMK AO2 SLP180 T00501056
KWRL
230453Z AUTO 00000KT 10SM CLR 03/M07 A3005 RMK AO2 SLP181 T00331067
(33.8 nm SE from KGEY)
KPOY
230515Z AUTO 20011KT 10SM CLR 09/M06 A3002 RMK AO2
(36.8 nm NW from KGEY)
TAF Summary (Translated TAF)
KWRL
(33.8 nm SE from KGEY)
221732Z 2218/2318 VRB05KT P6SM SKC FM230600 15006KT P6SM SCT120 BKN250
  Airport Weather Conditions for KGEY

Current weather conditions are
not available for GEY


The nearest NOAA weather station
is at WRL, (33.8 nm SE from GEY)
  
 Current Weather at WRL
38° F
Fair
North winds at 0.0 mph
WRL NOAA Radar

Pressure: 30.05 in
Humidity: 48%
Wind: Calm
Dew Point: 19.9°F
Visibility: 10.00 mi


Airport Weather Forecast for KGEY

Translated METAR and TAF for KGEY
Translated METAR for KGEY (0554 UTC 23 October 2014)
found at http://aviationweather.gov/adds/metars/
 
METAR text: KGEY 230453Z AUTO 00000KT 10SM CLR 05/M06 A3004 RMK AO2 SLP180 T00501056
Conditions at: KGEY (GREYBULL , WY, US) observed 0453 UTC 23 October 2014
Temperature: 5.0°C (41°F)
Dewpoint: -5.6°C (22°F) [RH = 46%]
Pressure (altimeter): 30.04 inches Hg (1017.4 mb)
[Sea-level pressure: 1018.0 mb]
Winds: calm
Visibility: 10 or more miles (16+ km)
Ceiling: at least 12,000 feet AGL
Clouds: sky clear below 12,000 feet AGL
Weather: automated observation with no human augmentation;
there may or may not be significant weather present at this time
Translated TAF for KGEY

There is no translated TAF available for this airport

Find All Airport Services Find A Hotel Find A Rental Car Find A Golf Course Find A Restaurant $100 Hamburger



FBO's on the Field
FBO Company Facility Photos Services Transportation Aviation Fuel Prices: Prices include tax
Catering Weather Repair Courtesy Rental Type 100LL JetA JetA+ MOGAS 8087
 
B & G Industries, LLC

This FBO has not yet been rated
FS:Independent
Last Updated: Oct-16
Login to update fuel prices
SS:
Contact B & G Industries, LLCMore FBO Information
 
South Big Horn County Airport

This FBO has not yet been rated
FS:Independent
Last Updated: Sep-12
Login to update fuel prices
SS:
Contact South Big Horn County AirportMore FBO Information
 
Add another FBO Facility Photos Catering Weather Repair Courtesy Rental Type 100LL JetA JetA+ MOGAS 8087
Services Transportation Aviation Fuel Prices: Prices include tax


model-print
model-print
model-print
model-print